星链-32254 (STARLINK-32254)

导读

STARLINK-32254是美国太空探索技术公司(SpaceX)于2024年8月12日发射的星链卫星,属于Starlink星座组网部署的卫星之一。星链计划旨在构建全球卫星互联网星座,为全球各地提供高速互联网接入服务,该卫星发射后进入预定轨道,助力星链星座全球覆盖能力的进一步扩展。

Basic Information
目录编号:
60427
目录名称:
STARLINK-32254
国际标识:
2024-144C
轨道中心:
EARTH
卫星名称:
星链-32254 (STARLINK-32254)
卫星全名:
星链-32254 (STARLINK-32254)
卫星状态:
在轨 (已飞行675 天)
发射日期:
2024-08-12 UTC
国别 :
美国 (US)
星等 :
--
Orbit Information
数据来源 国际轨道数据
星历时间: 2026-06-17T10:57:55+0800
21小时前
查看轨道信息
半长轴: 6840.872km
偏心率: 0.0001438
轨道倾角: 53.162°
近地点辐角 90.283°
升交点赤经 115.225°
平近点角 269.834°
近地点: 461.751km
远地点: 463.719km
周期: 93.848分钟
每日圈数: 15.343894
Detailed Information
卫星平台:
Starlink v2.0 mini
运营商:
太空探索技术公司
运营商所在国:
美国
制造商(研发单位):
太空探索技术公司
制造商所在国:
美国
使用方式:
暂无
Satellite Introduction
星链(Starlink)计划是由太空探索技术公司(SpaceX)提出的一个巨型低轨卫星互联网星座项目,计划在2019年至2024年间在太空搭建由约1.2万颗卫星组成的“星链”网络,其中1584颗将部署在地球上空550千米处的近地轨道,并从2020年开始工作。该卫星仍在工作。
2D Orbit Map
3D Orbit Map
Orbit Altitude Analysis Chart
Orbit Inclination Analysis Chart
Orbit Comprehensive Analysis Chart
View Comprehensive Chart